ROMMA est une association bénévole à but non lucratif. Votre soutien est indispensable : ADHERER à ROMMA ou FAIRE un DON

Le Versoud - (38, Isère)

Vallée du Grésivaudan (220 m)   Longitude: 05° 51' 44" E   Latitude: 45° 13' 06" N Station partenaire n°6
 

Détail journalier du     <<     >>

Température Humidité Pression Vent Dir Rafale Dir. rafale Ensol.
Heure (°C) (%) (hPa) (km/h) (km/h) (min)
01:00 13.779101400---0
02:00 12.788101400---0
03:00 11.988101500---0
04:00 11.190101500---0
05:00 10.392101500---0
06:00 9.993101500---0
07:00 9.993101500---0
08:00 14.474101500---60
09:00 14.969101500---60
10:00 17.561101502SE60
11:00 19.154101502SE60
12:00 21.244101402SE60
13:00 23.143101302S60
14:00 24.135101306SSO60
15:00 25.7321012013O60
16:00 27.3291012010ONO60
17:00 27.52710112O18O60
18:00 27.82410111ONO18O60
19:00 27.434101103ONO50
20:00 26.938101105NO55
21:00 23.650101103NO50
22:00 20.350101200---0
23:00 18.959101202NO0
minuit 18.366101200---0

Graphique du 13-06-2019

 

Serveur OMMA